^^
Saratoga-Weather Station Historical Data
Daily Summary for May 24, 2020 Units:  English    Metric   Both
Daily Weekly Monthly Yearly Custom
  High: Low: Average:
Temperature: 73.9 °F 44.4 °F 60.1 °F
Dew Point: 49.6 °F 39.7 °F 42.4 °F
Humidity: 86% 32% 56%
Wind Speed: 13mph 0mph 2.7mph
Wind Gust: 18mph - -
Wind- - West
Pressure: 30 in 29.8 in -
Precipitation: 0 in    
Historical Graphs
 
 
Tabular Data for May 24, 2020
Time Temperature Dew Point Pressure Wind Wind Speed Wind Gust Humidity Rainfall Rate (Hourly) solar
00:02 53.2 °F 41 °F 30 in West 0.9 mph 3 mph 63% 0 in 0 W/m2
00:07 53.2 °F 41.4 °F 30 in Calm   2 mph 64% 0 in 0 W/m2
00:12 52.9 °F 41 °F 30 in Calm   3 mph 64% 0 in 0 W/m2
00:17 52.5 °F 41.2 °F 30 in Calm   2 mph 65% 0 in 0 W/m2
00:22 52.5 °F 41.5 °F 30 in Calm   1 mph 66% 0 in 0 W/m2
00:27 52.3 °F 41.4 °F 30 in West 0.9 mph 2 mph 66% 0 in 0 W/m2
00:32 52.2 °F 41.2 °F 30 in Calm   1 mph 66% 0 in 0 W/m2
00:37 52 °F 41.4 °F 30 in West 0.9 mph 1 mph 67% 0 in 0 W/m2
00:42 51.6 °F 41 °F 30 in Calm     67% 0 in 0 W/m2
00:47 51.4 °F 41.2 °F 30 in Calm   1 mph 68% 0 in 0 W/m2
00:52 51.3 °F 41.4 °F 30 in Calm     69% 0 in 0 W/m2
00:57 51.1 °F 41.2 °F 30 in Calm     69% 0 in 0 W/m2
01:02 50.9 °F 41.5 °F 30 in Calm     70% 0 in 0 W/m2
01:07 50.7 °F 41.4 °F 30 in Calm   1 mph 70% 0 in 0 W/m2
01:13 50.5 °F 41.5 °F 30 in Calm     71% 0 in 0 W/m2
01:18 50.4 °F 41.4 °F 30 in Calm     71% 0 in 0 W/m2
01:23 50.2 °F 41.2 °F 30 in Calm     71% 0 in 0 W/m2
01:28 50 °F 41.4 °F 30 in Calm     72% 0 in 0 W/m2
01:33 49.6 °F 41 °F 30 in Calm     72% 0 in 0 W/m2
01:38 49.5 °F 41.2 °F 30 in Calm     73% 0 in 0 W/m2
01:43 49.3 °F 41.4 °F 30 in Calm     74% 0 in 0 W/m2
01:48 48.9 °F 41 °F 30 in Calm     74% 0 in 0 W/m2
01:53 48.9 °F 41.4 °F 30 in Calm     75% 0 in 0 W/m2
01:58 48.7 °F 41.2 °F 30 in Calm     75% 0 in 0 W/m2
02:03 48.7 °F 41.5 °F 30 in Calm     76% 0 in 0 W/m2
02:08 48.6 °F 41.4 °F 30 in Calm     76% 0 in 0 W/m2
02:13 48.4 °F 41.2 °F 30 in Calm     76% 0 in 0 W/m2
02:18 48 °F 41.2 °F 30 in Calm     77% 0 in 0 W/m2
02:23 48.2 °F 41.4 °F 30 in Calm     77% 0 in 0 W/m2
02:28 48.4 °F 41.5 °F 30 in Calm     77% 0 in 0 W/m2
02:33 48.4 °F 41.5 °F 30 in Calm   1 mph 77% 0 in 0 W/m2
02:38 48.4 °F 41.5 °F 30 in Calm     77% 0 in 0 W/m2
02:43 48.4 °F 41.5 °F 30 in Calm     77% 0 in 0 W/m2
02:48 48.4 °F 41.5 °F 30 in Calm     77% 0 in 0 W/m2
02:54 48.2 °F 41.4 °F 30 in Calm     77% 0 in 0 W/m2
02:59 48 °F 41.2 °F 30 in Calm     77% 0 in 0 W/m2
03:04 47.8 °F 41.4 °F 29.9 in West 0.9 mph 1 mph 78% 0 in 0 W/m2
03:09 47.7 °F 41.2 °F 29.9 in West 0.9 mph 2 mph 78% 0 in 0 W/m2
03:14 47.7 °F 41.5 °F 29.9 in West 0.9 mph 1 mph 79% 0 in 0 W/m2
03:19 47.5 °F 41.4 °F 29.9 in Calm     79% 0 in 0 W/m2
03:24 47.5 °F 41.4 °F 29.9 in West 1 mph 1 mph 79% 0 in 0 W/m2
03:29 47.1 °F 41 °F 29.9 in Calm     79% 0 in 0 W/m2
03:34 47.1 °F 41 °F 29.9 in Calm     79% 0 in 0 W/m2
03:39 46.9 °F 40.8 °F 29.9 in Calm     79% 0 in 0 W/m2
03:44 46.9 °F 40.8 °F 29.9 in Calm     79% 0 in 0 W/m2
03:49 46.8 °F 40.6 °F 29.9 in Calm     79% 0 in 0 W/m2
03:54 46.6 °F 40.5 °F 29.9 in Calm     79% 0 in 0 W/m2
03:59 46.4 °F 40.6 °F 29.9 in Calm     80% 0 in 0 W/m2
04:04 46 °F 40.3 °F 29.9 in Calm     80% 0 in 0 W/m2
04:09 46 °F 40.3 °F 29.9 in Calm     80% 0 in 0 W/m2
04:14 45.9 °F 40.3 °F 29.9 in Calm     81% 0 in 0 W/m2
04:19 45.9 °F 40.3 °F 29.9 in Calm     81% 0 in 0 W/m2
04:24 45.7 °F 40.5 °F 29.9 in Calm     82% 0 in 0 W/m2
04:29 45.7 °F 40.5 °F 29.9 in Calm     82% 0 in 0 W/m2
04:35 45.7 °F 40.8 °F 29.9 in West 0.9 mph 1 mph 83% 0 in 0 W/m2
04:40 45.7 °F 40.5 °F 29.9 in Calm     82% 0 in 0 W/m2
04:45 45.7 °F 40.5 °F 29.9 in Calm     82% 0 in 0 W/m2
04:50 45.7 °F 40.5 °F 29.9 in Calm     82% 0 in 0 W/m2
04:55 45.7 °F 40.5 °F 29.9 in Calm   1 mph 82% 0 in 0 W/m2
05:00 45.7 °F 40.5 °F 29.9 in Calm   1 mph 82% 0 in 0 W/m2
05:05 45.5 °F 40.6 °F 29.9 in Calm     83% 0 in 0 W/m2
05:10 45.7 °F 40.5 °F 29.9 in Calm   1 mph 82% 0 in 0 W/m2
05:15 45.7 °F 40.5 °F 29.9 in Calm   1 mph 82% 0 in 0 W/m2
05:20 45.5 °F 40.3 °F 29.9 in Calm     82% 0 in 0 W/m2
05:25 45.3 °F 40.1 °F 29.9 in Calm     82% 0 in 0 W/m2
05:30 45.3 °F 40.1 °F 29.9 in Calm     82% 0 in 0 W/m2
05:35 45.1 °F 40.3 °F 29.9 in West 0.9 mph 3 mph 83% 0 in 0 W/m2
05:40 45.1 °F 40.3 °F 29.9 in Calm   1 mph 83% 0 in 0 W/m2
05:45 45.1 °F 40.3 °F 29.9 in Calm   3 mph 83% 0 in 0 W/m2
05:50 45 °F 39.7 °F 29.9 in West 2 mph 2 mph 82% 0 in 0 W/m2
05:55 45 °F 40.1 °F 29.9 in Calm   1 mph 83% 0 in 0 W/m2
06:00 44.8 °F 39.9 °F 29.9 in West 0.9 mph 1 mph 83% 0 in 0 W/m2
06:05 44.8 °F 39.9 °F 29.9 in Calm   1 mph 83% 0 in 0 W/m2
06:10 44.8 °F 40.3 °F 29.9 in Calm     84% 0 in 0 W/m2
06:15 44.8 °F 40.3 °F 29.9 in West 0.9 mph 1 mph 84% 0 in 0 W/m2
06:20 44.8 °F 40.3 °F 29.9 in Calm   1 mph 84% 0 in 0 W/m2
06:25 44.8 °F 40.3 °F 29.9 in Calm     84% 0 in 0 W/m2
06:30 44.8 °F 40.3 °F 29.9 in Calm     84% 0 in 5 W/m2
06:35 44.8 °F 40.3 °F 29.9 in Calm     84% 0 in 7 W/m2
06:40 44.6 °F 40.1 °F 29.9 in Calm     84% 0 in 9 W/m2
06:45 44.4 °F 39.9 °F 29.9 in Calm     84% 0 in 12 W/m2
06:50 44.4 °F 39.9 °F 29.9 in Calm     84% 0 in 14 W/m2
06:55 44.6 °F 40.5 °F 29.9 in Calm     85% 0 in 16 W/m2
07:00 44.8 °F 40.5 °F 29.9 in Calm     85% 0 in 19 W/m2
07:05 44.8 °F 40.5 °F 29.9 in Calm     85% 0 in 23 W/m2
07:10 44.8 °F 40.5 °F 29.9 in Calm     85% 0 in 26 W/m2
07:15 44.8 °F 40.5 °F 29.9 in Calm     85% 0 in 33 W/m2
07:20 44.8 °F 40.5 °F 29.9 in Calm     85% 0 in 40 W/m2
07:25 44.8 °F 40.5 °F 29.9 in Calm     85% 0 in 49 W/m2
07:30 45 °F 40.6 °F 29.9 in Calm     85% 0 in 60 W/m2
07:35 45.1 °F 41.2 °F 29.9 in Calm     86% 0 in 74 W/m2
07:40 45.5 °F 41.5 °F 29.9 in Calm     86% 0 in 91 W/m2
07:45 45.9 °F 41.5 °F 29.9 in Calm     85% 0 in 105 W/m2
07:50 46.2 °F 41.7 °F 29.9 in Calm     84% 0 in 104 W/m2
07:55 46.8 °F 42.3 °F 29.9 in Calm     84% 0 in 139 W/m2
08:00 47.1 °F 42.3 °F 29.9 in Calm     83% 0 in 155 W/m2
08:05 48 °F 42.8 °F 29.9 in Calm     82% 0 in 139 W/m2
08:10 48.6 °F 43 °F 29.9 in Calm     81% 0 in 127 W/m2
08:15 48.9 °F 43.3 °F 29.9 in NW 0.9 mph 2 mph 81% 0 in 104 W/m2
08:21 49.3 °F 43.3 °F 29.9 in ENE 0.9 mph 1 mph 80% 0 in 149 W/m2
08:26 49.6 °F 43.7 °F 29.9 in ENE 0.9 mph 1 mph 80% 0 in 179 W/m2
08:31 49.8 °F 43.9 °F 29.9 in ENE 0.9 mph 2 mph 80% 0 in 183 W/m2
08:36 50 °F 43.7 °F 29.9 in Calm   3 mph 79% 0 in 199 W/m2
08:41 50.2 °F 43.9 °F 29.9 in East 0.9 mph 1 mph 79% 0 in 248 W/m2
08:46 50.4 °F 44.4 °F 29.9 in Calm   3 mph 80% 0 in 276 W/m2
08:51 50.7 °F 44.4 °F 29.9 in Calm   2 mph 79% 0 in 234 W/m2
08:56 51.3 °F 45 °F 29.9 in Calm   1 mph 79% 0 in 253 W/m2
09:01 51.6 °F 45.3 °F 29.9 in Calm   1 mph 79% 0 in 309 W/m2
09:06 52.2 °F 45.1 °F 29.9 in Calm   1 mph 77% 0 in 318 W/m2
09:11 52.5 °F 45.5 °F 29.9 in East 0.9 mph 1 mph 77% 0 in 343 W/m2
09:16 53.2 °F 45.9 °F 29.9 in NE 2 mph 2 mph 76% 0 in 359 W/m2
09:21 53.8 °F 46 °F 29.9 in Calm   1 mph 75% 0 in 371 W/m2
09:26 54.1 °F 46.4 °F 29.9 in Calm     75% 0 in 371 W/m2
09:31 55 °F 46.9 °F 29.9 in Calm   1 mph 74% 0 in 390 W/m2
09:36 55.8 °F 47.3 °F 29.9 in ENE 2 mph 2 mph 73% 0 in 399 W/m2
09:41 56.8 °F 47.8 °F 29.9 in Calm   1 mph 72% 0 in 438 W/m2
09:46 57.7 °F 47.7 °F 29.9 in East 2 mph 3 mph 69% 0 in 438 W/m2
09:51 58.5 °F 48 °F 29.9 in Calm   2 mph 68% 0 in 432 W/m2
09:56 59.2 °F 48.6 °F 29.9 in ENE 0.9 mph 2 mph 68% 0 in 123 W/m2
10:01 60.1 °F 49.1 °F 29.9 in Calm   2 mph 67% 0 in 489 W/m2
10:06 61.3 °F 49.1 °F 29.9 in Calm   2 mph 64% 0 in 529 W/m2
10:12 62.6 °F 49.5 °F 29.9 in Calm   2 mph 62% 0 in 519 W/m2
10:17 63.7 °F 49.5 °F 29.9 in East 2.9 mph 3 mph 60% 0 in 489 W/m2
10:22 64.6 °F 49.5 °F 29.9 in ESE 2 mph 2 mph 58% 0 in 504 W/m2
10:27 64.9 °F 48.9 °F 29.9 in ESE 0.9 mph 2 mph 56% 0 in 504 W/m2
10:32 65.5 °F 49.3 °F 29.9 in Calm   1 mph 56% 0 in 519 W/m2
10:37 66.4 °F 49.6 °F 29.9 in ESE 2 mph 2 mph 55% 0 in 591 W/m2
10:42 67.3 °F 48.6 °F 29.9 in WNW 4 mph 5 mph 51% 0 in 577 W/m2
10:47 67.5 °F 46.6 °F 29.9 in SW 4.9 mph 9 mph 47% 0 in 531 W/m2
10:52 67.3 °F 46.4 °F 29.9 in WNW 2.9 mph 7 mph 47% 0 in 571 W/m2
10:57 67.3 °F 46.4 °F 29.9 in West 2.9 mph 9 mph 47% 0 in 591 W/m2
11:02 67.3 °F 45.9 °F 29.9 in West 4 mph 7 mph 46% 0 in 624 W/m2
11:07 67.5 °F 44.8 °F 29.9 in West 2.9 mph 7 mph 44% 0 in 645 W/m2
11:12 67.5 °F 45.3 °F 29.9 in West 2 mph 3 mph 45% 0 in 652 W/m2
11:17 67.8 °F 45.7 °F 29.9 in WSW 4.9 mph 5 mph 45% 0 in 663 W/m2
11:22 68 °F 45.9 °F 29.9 in NW 4.9 mph 5 mph 45% 0 in 698 W/m2
11:27 68.2 °F 46.6 °F 29.9 in West 6.9 mph 9 mph 46% 0 in 714 W/m2
11:32 68.5 °F 42.6 °F 29.9 in West 8.1 mph 10 mph 39% 0 in 589 W/m2
11:37 68.7 °F 42.8 °F 29.9 in WNW 6.9 mph 7 mph 39% 0 in 348 W/m2
11:42 68.7 °F 42.1 °F 29.9 in NW 4.9 mph 10 mph 38% 0 in 425 W/m2
11:47 68.5 °F 43.3 °F 29.9 in West 4 mph 7 mph 40% 0 in 680 W/m2
11:52 68.9 °F 43 °F 29.9 in WNW 6.9 mph 7 mph 39% 0 in 708 W/m2
11:57 69.4 °F 42.1 °F 29.9 in WNW 2 mph 3 mph 37% 0 in 679 W/m2
12:02 69.6 °F 41.5 °F 29.9 in WNW 2.9 mph 10 mph 36% 0 in 691 W/m2
12:07 69.6 °F 41.5 °F 29.9 in WSW 4 mph 9 mph 36% 0 in 715 W/m2
12:12 70 °F 41 °F 29.9 in SW 4 mph 8 mph 35% 0 in 738 W/m2
12:17 70.2 °F 41.9 °F 29.9 in NW 8.9 mph 12 mph 36% 0 in 754 W/m2
12:22 70.2 °F 41.9 °F 29.9 in SW 4.9 mph 13 mph 36% 0 in 758 W/m2
12:27 70.2 °F 41.9 °F 29.9 in NW 8.1 mph 12 mph 36% 0 in 763 W/m2
12:32 70.3 °F 42.8 °F 29.9 in NW 6 mph 10 mph 37% 0 in 777 W/m2
12:37 70.7 °F 43.2 °F 29.9 in WNW 8.1 mph 9 mph 37% 0 in 798 W/m2
12:42 70.9 °F 42.6 °F 29.9 in NW 4 mph 10 mph 36% 0 in 802 W/m2
12:47 70.7 °F 43.2 °F 29.9 in NNW 8.9 mph 11 mph 37% 0 in 823 W/m2
12:52 70.7 °F 42.4 °F 29.9 in SW 6 mph 11 mph 36% 0 in 512 W/m2
12:57 70.5 °F 43 °F 29.9 in WNW 8.9 mph 10 mph 37% 0 in 693 W/m2
13:02 70.5 °F 43 °F 29.9 in WNW 6 mph 6 mph 37% 0 in 793 W/m2
13:07 70.9 °F 41.9 °F 29.9 in West 6 mph 12 mph 35% 0 in 812 W/m2
13:12 71.1 °F 42.1 °F 29.9 in NNW 4.9 mph 8 mph 35% 0 in 717 W/m2
13:17 71.2 °F 42.3 °F 29.9 in West 6 mph 13 mph 35% 0 in 861 W/m2
13:22 71.2 °F 41.4 °F 29.9 in NW 6.9 mph 11 mph 34% 0 in 853 W/m2
13:27 71.2 °F 41.4 °F 29.9 in WNW 8.1 mph 15 mph 34% 0 in 838 W/m2
13:32 71.4 °F 41.5 °F 29.9 in WNW 6.9 mph 14 mph 34% 0 in 527 W/m2
13:37 71.2 °F 43 °F 29.9 in West 8.9 mph 15 mph 36% 0 in 893 W/m2
13:42 71.6 °F 42.4 °F 29.9 in West 6.9 mph 12 mph 35% 0 in 851 W/m2
13:47 71.8 °F 42.6 °F 29.9 in West 6.9 mph 14 mph 35% 0 in 800 W/m2
13:52 71.8 °F 41.9 °F 29.9 in West 6 mph 18 mph 34% 0 in 891 W/m2
13:57 71.6 °F 41.7 °F 29.9 in West 8.9 mph 14 mph 34% 0 in 594 W/m2
14:02 71.2 °F 42.3 °F 29.9 in WNW 8.1 mph 18 mph 35% 0 in 352 W/m2
14:07 71.1 °F 41.4 °F 29.9 in NW 4.9 mph 11 mph 34% 0 in 237 W/m2
14:12 70.9 °F 41.9 °F 29.9 in West 13 mph 13 mph 35% 0 in 202 W/m2
14:17 70.3 °F 41.4 °F 29.9 in WSW 4 mph 13 mph 35% 0 in 207 W/m2
14:22 70.3 °F 42.1 °F 29.9 in WSW 8.1 mph 14 mph 36% 0 in 397 W/m2
14:27 70.5 °F 42.3 °F 29.9 in NW 4 mph 8 mph 36% 0 in 308 W/m2
14:32 70.3 °F 42.8 °F 29.9 in WSW 8.1 mph 14 mph 37% 0 in 251 W/m2
14:37 70.2 °F 43.3 °F 29.9 in West 2.9 mph 8 mph 38% 0 in 274 W/m2
14:42 70.2 °F 42.6 °F 29.9 in WSW 12 mph 12 mph 37% 0 in 366 W/m2
14:47 70.3 °F 43.5 °F 29.9 in West 2.9 mph 7 mph 38% 0 in 550 W/m2
14:52 71.2 °F 43 °F 29.9 in West 6 mph 9 mph 36% 0 in 733 W/m2
14:57 71.8 °F 42.6 °F 29.9 in WNW 2 mph 7 mph 35% 0 in 729 W/m2
15:02 72.1 °F 43 °F 29.9 in North 4 mph 11 mph 35% 0 in 680 W/m2
15:07 72.7 °F 43.5 °F 29.9 in NNW 4.9 mph 6 mph 35% 0 in 722 W/m2
15:12 73.2 °F 43.2 °F 29.9 in NW 13 mph 13 mph 34% 0 in 715 W/m2
15:17 73.2 °F 42.4 °F 29.9 in NW 10.1 mph 16 mph 33% 0 in 705 W/m2
15:22 73.2 °F 42.4 °F 29.9 in West 6.9 mph 11 mph 33% 0 in 657 W/m2
15:27 73.2 °F 42.4 °F 29.9 in WSW 8.1 mph 15 mph 33% 0 in 677 W/m2
15:32 73.2 °F 43.2 °F 29.9 in West 8.1 mph 12 mph 34% 0 in 670 W/m2
15:37 73.2 °F 44.6 °F 29.9 in WSW 8.1 mph 10 mph 36% 0 in 661 W/m2
15:42 73.4 °F 42.6 °F 29.9 in NW 4 mph 10 mph 33% 0 in 649 W/m2
15:47 73.6 °F 42.6 °F 29.9 in NW 4 mph 10 mph 33% 0 in 638 W/m2
15:52 73.2 °F 43.2 °F 29.9 in NNW 8.1 mph 9 mph 34% 0 in 621 W/m2
15:57 73 °F 43.7 °F 29.9 in NNW 10.1 mph 12 mph 35% 0 in 619 W/m2
16:02 73.4 °F 44.1 °F 29.9 in WNW 8.1 mph 9 mph 35% 0 in 591 W/m2
16:07 73.2 °F 43.9 °F 29.9 in WSW 2.9 mph 7 mph 35% 0 in 605 W/m2
16:12 73 °F 44.4 °F 29.9 in NW 4.9 mph 11 mph 36% 0 in 540 W/m2
16:17 73.6 °F 44.2 °F 29.9 in SW 4 mph 8 mph 35% 0 in 599 W/m2
16:22 73.9 °F 43.9 °F 29.9 in West 2.9 mph 13 mph 34% 0 in 585 W/m2
16:27 73.8 °F 43.7 °F 29.9 in WNW 8.1 mph 16 mph 34% 0 in 452 W/m2
16:32 73 °F 43.7 °F 29.9 in SW 6.9 mph 10 mph 35% 0 in 271 W/m2
16:37 72.7 °F 43.5 °F 29.9 in WSW 4.9 mph 16 mph 35% 0 in 422 W/m2
16:42 72.7 °F 43.5 °F 29.9 in West 8.1 mph 11 mph 35% 0 in 531 W/m2
16:47 72.9 °F 44.4 °F 29.8 in WNW 2.9 mph 11 mph 36% 0 in 452 W/m2
16:52 73.6 °F 42.6 °F 29.8 in WNW 8.9 mph 10 mph 33% 0 in 480 W/m2
16:57 73.8 °F 43.7 °F 29.8 in West 6 mph 11 mph 34% 0 in 489 W/m2
17:02 73.8 °F 42.8 °F 29.8 in West 4 mph 9 mph 33% 0 in 383 W/m2
17:07 73.8 °F 42.8 °F 29.8 in WSW 8.1 mph 11 mph 33% 0 in 450 W/m2
17:12 73.6 °F 43.5 °F 29.8 in WSW 8.9 mph 10 mph 34% 0 in 480 W/m2
17:17 73.6 °F 43.5 °F 29.8 in WSW 13 mph 14 mph 34% 0 in 492 W/m2
17:22 73.6 °F 41.9 °F 29.8 in WNW 4.9 mph 17 mph 32% 0 in 468 W/m2
17:27 73.8 °F 42.1 °F 29.8 in WNW 6 mph 13 mph 32% 0 in 438 W/m2
17:32 73.8 °F 42.1 °F 29.8 in SW 6 mph 16 mph 32% 0 in 475 W/m2
17:37 73.6 °F 41.9 °F 29.8 in West 8.9 mph 17 mph 32% 0 in 457 W/m2
17:43 73.2 °F 42.4 °F 29.8 in West 6.9 mph 9 mph 33% 0 in 457 W/m2
17:48 73.2 °F 41.5 °F 29.8 in NW 6 mph 17 mph 32% 0 in 394 W/m2
17:53 73 °F 41.4 °F 29.8 in WSW 4 mph 13 mph 32% 0 in 443 W/m2
17:58 73.2 °F 41.5 °F 29.8 in WSW 4.9 mph 16 mph 32% 0 in 413 W/m2
18:03 73 °F 41.4 °F 29.8 in WSW 8.1 mph 12 mph 32% 0 in 415 W/m2
18:08 73 °F 41.4 °F 29.8 in WSW 6.9 mph 16 mph 32% 0 in 399 W/m2
18:13 73.2 °F 41.5 °F 29.8 in NW 2.9 mph 9 mph 32% 0 in 380 W/m2
18:18 73.4 °F 42.6 °F 29.8 in WNW 4 mph 15 mph 33% 0 in 353 W/m2
18:23 73.4 °F 41.7 °F 29.8 in NNW 6 mph 15 mph 32% 0 in 308 W/m2
18:28 73.2 °F 42.4 °F 29.8 in West 6.9 mph 10 mph 33% 0 in 283 W/m2
18:33 73 °F 42.3 °F 29.8 in NW 2.9 mph 15 mph 33% 0 in 248 W/m2
18:38 73 °F 43 °F 29.8 in NNW 4.9 mph 13 mph 34% 0 in 211 W/m2
18:43 72.3 °F 42.4 °F 29.8 in WSW 8.1 mph 12 mph 34% 0 in 167 W/m2
18:48 71.6 °F 42.4 °F 29.8 in West 8.1 mph 10 mph 35% 0 in 130 W/m2
18:53 71.4 °F 42.3 °F 29.8 in WNW 4 mph 9 mph 35% 0 in 162 W/m2
18:58 71.4 °F 42.3 °F 29.8 in NNW 6 mph 10 mph 35% 0 in 186 W/m2
19:03 71.4 °F 42.3 °F 29.8 in West 8.9 mph 9 mph 35% 0 in 188 W/m2
19:08 71.2 °F 43 °F 29.8 in WSW 4 mph 6 mph 36% 0 in 134 W/m2
19:13 71.1 °F 42.8 °F 29.8 in WSW 2.9 mph 6 mph 36% 0 in 107 W/m2
19:18 70.3 °F 42.1 °F 29.8 in West 4 mph 9 mph 36% 0 in 81 W/m2
19:24 70 °F 42.4 °F 29.8 in WSW 4.9 mph 9 mph 37% 0 in 74 W/m2
19:29 69.6 °F 42.3 °F 29.8 in West 2 mph 5 mph 37% 0 in 86 W/m2
19:34 69.6 °F 42.3 °F 29.8 in WSW 6.9 mph 7 mph 37% 0 in 95 W/m2
19:39 69.4 °F 42.8 °F 29.8 in West 2 mph 4 mph 38% 0 in 74 W/m2
19:44 69.3 °F 42.6 °F 29.8 in West 2.9 mph 4 mph 38% 0 in 83 W/m2
19:49 69.3 °F 43.2 °F 29.8 in WSW 2 mph 4 mph 39% 0 in 76 W/m2
19:54 68.9 °F 43.5 °F 29.8 in WSW 2.9 mph 4 mph 40% 0 in 63 W/m2
19:59 68.7 °F 43.3 °F 29.8 in West 4 mph 6 mph 40% 0 in 54 W/m2
20:04 68.4 °F 43.2 °F 29.8 in West 6 mph 8 mph 40% 0 in 40 W/m2
20:09 67.8 °F 42.6 °F 29.8 in WNW 2.9 mph 8 mph 40% 0 in 35 W/m2
20:14 67.5 °F 43 °F 29.8 in West 4 mph 6 mph 41% 0 in 30 W/m2
20:19 66.9 °F 42.4 °F 29.8 in West 6 mph 9 mph 41% 0 in 25 W/m2
20:24 66.7 °F 43 °F 29.8 in WNW 4.9 mph 8 mph 42% 0 in 19 W/m2
20:29 66.6 °F 42.8 °F 29.8 in WSW 4 mph 7 mph 42% 0 in 16 W/m2
20:34 66.2 °F 43 °F 29.8 in West 2.9 mph 8 mph 43% 0 in 12 W/m2
20:39 65.8 °F 42.8 °F 29.8 in West 2 mph 3 mph 43% 0 in 9 W/m2
20:44 65.5 °F 43 °F 29.8 in West 2.9 mph 3 mph 44% 0 in 7 W/m2
20:49 64.9 °F 42.4 °F 29.8 in West 2 mph 3 mph 44% 0 in 7 W/m2
20:54 64.8 °F 42.3 °F 29.8 in West 0.9 mph 4 mph 44% 0 in 7 W/m2
20:59 64.4 °F 42.1 °F 29.8 in West 2 mph 3 mph 44% 0 in 0 W/m2
21:04 64.2 °F 42.4 °F 29.8 in WNW 2 mph 3 mph 45% 0 in 0 W/m2
21:09 63.9 °F 42.1 °F 29.8 in West 0.9 mph 3 mph 45% 0 in 0 W/m2
21:14 63.5 °F 42.3 °F 29.8 in West 2 mph 3 mph 46% 0 in 0 W/m2
21:19 63.1 °F 41.5 °F 29.8 in West 2.9 mph 4 mph 45% 0 in 0 W/m2
21:24 63 °F 41.4 °F 29.8 in West 2 mph 3 mph 45% 0 in 0 W/m2
21:29 62.8 °F 41.7 °F 29.8 in WNW 2 mph 4 mph 46% 0 in 0 W/m2
21:34 62.8 °F 41.7 °F 29.8 in WSW 2 mph 2 mph 46% 0 in 0 W/m2
21:39 62.4 °F 41.9 °F 29.8 in WSW 0.9 mph 2 mph 47% 0 in 0 W/m2
21:44 62.2 °F 41.2 °F 29.8 in West 2 mph 3 mph 46% 0 in 0 W/m2
21:49 62.1 °F 41 °F 29.8 in WSW 2 mph 2 mph 46% 0 in 0 W/m2
21:54 61.9 °F 41.4 °F 29.8 in West 0.9 mph 2 mph 47% 0 in 0 W/m2
21:59 61.5 °F 41.2 °F 29.9 in Calm   2 mph 47% 0 in 0 W/m2
22:04 61.3 °F 41.5 °F 29.9 in West 0.9 mph 2 mph 48% 0 in 0 W/m2
22:09 61 °F 41.7 °F 29.9 in West 0.9 mph 2 mph 49% 0 in 0 W/m2
22:14 60.4 °F 41.2 °F 29.9 in West 0.9 mph 3 mph 49% 0 in 0 W/m2
22:19 60.4 °F 41.2 °F 29.9 in West 0.9 mph 3 mph 49% 0 in 0 W/m2
22:24 60.6 °F 41.4 °F 29.9 in WSW 2 mph 4 mph 49% 0 in 0 W/m2
22:29 60.6 °F 41.4 °F 29.9 in West 2 mph 3 mph 49% 0 in 0 W/m2
22:34 60.4 °F 41.7 °F 29.9 in West 2 mph 4 mph 50% 0 in 0 W/m2
22:39 60.4 °F 41.7 °F 29.9 in West 2 mph 4 mph 50% 0 in 0 W/m2
22:44 60.1 °F 41.4 °F 29.9 in West 0.9 mph 2 mph 50% 0 in 0 W/m2
22:49 59.9 °F 41.7 °F 29.9 in WSW 2 mph 5 mph 51% 0 in 0 W/m2
22:54 59.5 °F 41.9 °F 29.9 in West 2 mph 3 mph 52% 0 in 0 W/m2
22:59 59.5 °F 41.9 °F 29.9 in WSW 0.9 mph 4 mph 52% 0 in 0 W/m2
23:04 59.4 °F 42.3 °F 29.9 in WSW 0.9 mph 3 mph 53% 0 in 0 W/m2
23:09 59.2 °F 42.1 °F 29.9 in WSW 2 mph 3 mph 53% 0 in 0 W/m2
23:14 58.8 °F 42.3 °F 29.9 in WSW 2 mph 3 mph 54% 0 in 0 W/m2
23:19 58.6 °F 42.4 °F 29.9 in WSW 0.9 mph 2 mph 55% 0 in 0 W/m2
23:24 58.3 °F 42.3 °F 29.9 in West 0.9 mph 3 mph 55% 0 in 0 W/m2
23:29 58.3 °F 42.3 °F 29.9 in SW 2.9 mph 4 mph 55% 0 in 0 W/m2
23:35 58.1 °F 42.1 °F 29.9 in West 0.9 mph 3 mph 55% 0 in 0 W/m2
23:40 57.9 °F 41.9 °F 29.9 in WSW 2 mph 3 mph 55% 0 in 0 W/m2
23:45 57.7 °F 42.1 °F 29.9 in WSW 0.9 mph 2 mph 56% 0 in 0 W/m2
23:50 57.6 °F 42.4 °F 29.9 in Calm   1 mph 57% 0 in 0 W/m2
23:55 57.2 °F 42.6 °F 29.9 in West 0.9 mph 3 mph 58% 0 in 0 W/m2
Juneau County Weather
Compliments of Weather Underground - 2 mb